Regional Weather Roundup
Issued by NWS

Home | Current Version | Previous Version | Graphics & Text | Print | Product List | Glossary On
Versions: 1 2 3 4 5 6 7 8 9 10 11 12 13 14 15 16 17 18 19 20 21 22 23 24 25 26 27 28
000
ASUS45 KSLC 230210
RWRUT

UTAH REGIONAL WEATHER ROUNDUP
NATIONAL WEATHER SERVICE SALT LAKE CITY UT
700 PM MST WED NOV 22 2017

UTZ001>011-023>025-230300-

NORTHERN UTAH

CITY           SKY/WX    TMP DP  RH WIND       PRES   REMARKS
BRIGHAM CITY   MOCLDY    49  42  77 CALM      30.38S
HILL AFB       MOCLDY    53  42  66 N3        30.38S
LOGAN          PTCLDY    48  42  80 SE3       30.38S
OGDEN          MOCLDY    49  41  74 CALM      30.37S
SALT LAKE CITY MOCLDY    51  43  74 CALM      30.37S
TOOELE VALLEY  MOCLDY    43  41  93 S6        30.38S
WENDOVER       PTCLDY    47  39  74 CALM      30.38R
HEBER CITY       N/A     43  36  75 CALM      30.41S
WEST JORDAN    MOCLDY    50  43  76 CALM      30.39S

$$

UTZ011>015-024>027-230300-

CENTRAL/NORTHEAST UTAH

CITY           SKY/WX    TMP DP  RH WIND       PRES   REMARKS
PROVO AIRPORT  CLOUDY    45  38  76 VRB5      30.40S
MOAB/CANYONLAN PTCLDY    48  22  35 CALM      30.38R
DELTA          MOCLDY    54  34  47 CALM      30.39S
PRICE          MOCLDY    45  25  45 NE5       30.43R
RICHFIELD      CLEAR     50  41  71 N5        30.43
ROOSEVELT      CLOUDY    41  28  60 W6        30.43S
VERNAL         CLOUDY    45  31  58 CALM      30.40S

$$

UTZ013>016-019>022-027-230300-

SOUTHERN UTAH

CITY           SKY/WX    TMP DP  RH WIND       PRES   REMARKS
BRYCE CANYON   CLEAR     36  26  67 NW3       30.51R
CEDAR CITY     CLEAR     52  37  56 E3        30.39R
MILFORD        CLEAR     52  36  54 NW10      30.38S
ST GEORGE      CLOUDY    61  30  31 CALM      30.26R
HANKSVILLE     CLEAR     50  21  32 CALM      30.41R
KANAB          CLEAR     57  30  35 N8        30.41
BLANDING         N/A     47  28  48 N5        30.46R

$$

REGIONAL REPORTS     COLORADO/ARIZONA

CITY           SKY/WX    TMP DP  RH WIND       PRES   REMARKS
CRAIG, CO      CLOUDY    45  36  70 E5        30.44R
GRAND JUNCTION CLOUDY    47  30  51 NE5       30.39S
RIFLE, CO      CLOUDY    42  36  79 SE7       30.44R
MONTROSE, CO   CLOUDY    43  31  62 SE8       30.44S
CORTEZ, CO     CLEAR     55  32  41 SW6       30.37R
COLORADO CITY    N/A     52  34  50 NE6       30.38R
PAGE, AZ       CLEAR     55  29  36 SE5       30.35S
GRAND CANYON   CLEAR     47  28  47 NE5       30.44R
KINGMAN, AZ    CLEAR     57  29  34 E7        30.24R
FLAGSTAFF, AZ  CLEAR     52  29  41 E9        30.44R

$$

REGIONAL REPORTS    NEVADA/IDAHO/WYOMING

CITY           SKY/WX    TMP DP  RH WIND       PRES   REMARKS
LAS VEGAS, NV  CLEAR     73  39  29 SW5       30.19R
ELY, NY        CLEAR     51  30  44 S10       30.41R
ELKO, NV       CLOUDY    49  42  77 E6        30.35F
POCATELLO, ID  CLOUDY    56  42  59 S9        30.33S
BURLEY, ID     MOCLDY    50  44  80 SE3       30.29F
FORT BRIDGER,    N/A     45  38  78 SW10      30.49R
EVANSTON, WY   CLOUDY    46  38  73 SW10      30.46S
ROCK SPRINGS,  CLOUDY    45  37  73 W12       30.43R
KEMMERER, WY   CLOUDY    41  36  81 CALM      30.46R

$$




USA.gov is the U.S. government's official web portal to all federal, state and local government web resources and services.